Rolla, ND

2:17 PM CDT on September 19, 2017 (GMT -0500)
Rolla

Weather History for K06D - April, 2013

Change the Weather History Date:

Sunday, April 7, 2013

  Actual Average (KRUG) Record (KRUG)
Temperature  
Mean Temperature 26 °F -  
Max Temperature 28 °F 49 °F 86 °F (1988)
Min Temperature 23 °F 28 °F 8 °F (1974)
Degree Days  
Heating Degree Days 40    
Moisture  
Dew Point 27 °F    
Average Humidity 100    
Maximum Humidity 100    
Minimum Humidity 100    
Precipitation  
Precipitation 0.10 in - - ()
Sea Level Pressure  
Sea Level Pressure 29.82 in    
Wind  
Wind Speed 8 mph (ESE)    
Max Wind Speed 20 mph    
Max Gust Speed 24 mph    
Visibility 8 miles    
Events Rain , Snow    
Averages and records for this station are not official NWS values.
T = Trace of Precipitation, MM = Missing Value Source: NWS Daily Summary

Daily Weather History Graph

Daily Weather History Graph

Search for Another Location

Airport or City:

Trip Planner

Search our weather history database for the weather conditions in past years. The results will help you decide how hot, cold, wet, or windy it might be!

Date:

Astronomy

Apr. 07, 2013 Rise Set
Actual Time 7:03 AM CDT 8:18 PM CDT
Civil Twilight 6:30 AM CDT 8:51 PM CDT
Nautical Twilight 5:51 AM CDT 9:30 PM CDT
Astronomical Twilight 5:09 AM CDT 10:13 PM CDT
Moon 5:34 AM CDT (4/7) 5:42 PM CDT (4/7)
Length of Visible Light 14h 20m
Length of Day
13h 15m
Waning Crescent, 8% of the Moon is Illuminated
Apr 7
Waning Crescent
Apr 10
New
Apr 18
First Quarter
Apr 25
Full
May 2
Last Quarter

Hourly Weather History & Observations

Time (CDT) Temp. Windchill Dew Point Humidity Pressure Visibility Wind Dir Wind Speed Gust Speed Precip Events Conditions
12:15 AM 28.4 °F 24.6 °F 28.4 °F 100% 29.86 in 10.0 mi North 3.5 mph - N/A   Overcast
12:35 AM 26.6 °F 20.0 °F 26.6 °F 100% 29.87 in 10.0 mi NW 5.8 mph - N/A   Overcast
12:55 AM 26.6 °F 21.2 °F 26.6 °F 100% 29.88 in 10.0 mi WNW 4.6 mph - N/A   Overcast
1:15 AM 26.6 °F 22.6 °F 26.6 °F 100% 29.88 in 10.0 mi NNW 3.5 mph - N/A   Overcast
1:35 AM 28.4 °F 23.3 °F 28.4 °F 100% 29.87 in 10.0 mi North 4.6 mph - N/A   Overcast
1:55 AM 26.6 °F 22.6 °F 26.6 °F 100% 29.87 in 10.0 mi North 3.5 mph - N/A   Overcast
2:15 AM 26.6 °F 21.2 °F 26.6 °F 100% 29.87 in 10.0 mi NNE 4.6 mph - N/A   Overcast
2:35 AM 26.6 °F 21.2 °F 26.6 °F 100% 29.87 in 10.0 mi North 4.6 mph - N/A   Overcast
2:55 AM 26.6 °F - 26.6 °F 100% 29.87 in 10.0 mi Calm Calm - N/A   Overcast
3:15 AM 26.6 °F 22.6 °F 26.6 °F 100% 29.87 in 10.0 mi NW 3.5 mph - N/A   Overcast
3:35 AM 26.6 °F - 26.6 °F 100% 29.86 in 10.0 mi Calm Calm - N/A   Overcast
3:55 AM 26.6 °F - 26.6 °F 100% 29.86 in 10.0 mi Calm Calm - N/A   Overcast
4:15 AM 26.6 °F - 26.6 °F 100% 29.86 in 10.0 mi Calm Calm - N/A   Overcast
4:35 AM 26.6 °F 21.2 °F 26.6 °F 100% 29.85 in 10.0 mi ENE 4.6 mph - N/A   Overcast
4:55 AM 26.6 °F 22.6 °F 26.6 °F 100% 29.84 in 10.0 mi East 3.5 mph - N/A   Overcast
5:15 AM 26.6 °F 22.6 °F 26.6 °F 100% 29.84 in 10.0 mi East 3.5 mph - N/A   Overcast
5:35 AM 26.6 °F 19.1 °F 26.6 °F 100% 29.84 in 10.0 mi East 6.9 mph - N/A   Overcast
5:55 AM 26.6 °F 20.0 °F 26.6 °F 100% 29.84 in 10.0 mi East 5.8 mph - N/A   Overcast
6:15 AM 26.6 °F 20.0 °F 26.6 °F 100% 29.84 in 10.0 mi East 5.8 mph - N/A   Overcast
6:35 AM 26.6 °F 20.0 °F 26.6 °F 100% 29.84 in 10.0 mi East 5.8 mph - N/A   Overcast
6:55 AM 26.6 °F 20.0 °F 26.6 °F 100% 29.85 in 10.0 mi East 5.8 mph - N/A   Overcast
7:15 AM 26.6 °F 20.0 °F 26.6 °F 100% 29.86 in 10.0 mi East 5.8 mph - N/A   Overcast
7:35 AM 26.6 °F 19.1 °F 26.6 °F 100% 29.85 in 10.0 mi East 6.9 mph - N/A   Overcast
7:55 AM 26.6 °F 18.2 °F 26.6 °F 100% 29.85 in 10.0 mi ESE 8.1 mph - N/A   Overcast
8:15 AM 26.6 °F 18.2 °F 26.6 °F 100% 29.85 in 10.0 mi ESE 8.1 mph - N/A   Overcast
8:35 AM 26.6 °F 18.2 °F 26.6 °F 100% 29.85 in 10.0 mi SE 8.1 mph - N/A   Overcast
8:55 AM 26.6 °F 17.5 °F 26.6 °F 100% 29.83 in 10.0 mi SE 9.2 mph - N/A   Overcast
9:15 AM 26.6 °F 17.5 °F 26.6 °F 100% 29.83 in 10.0 mi SE 9.2 mph - N/A   Overcast
9:35 AM 26.6 °F 16.2 °F 26.6 °F 100% 29.82 in 10.0 mi SE 11.5 mph - N/A   Overcast
9:55 AM 26.6 °F 16.2 °F 26.6 °F 100% 29.81 in 10.0 mi SE 11.5 mph - N/A   Overcast
10:15 AM 26.6 °F 16.2 °F 26.6 °F 100% 29.81 in 10.0 mi SSE 11.5 mph - N/A   Overcast
10:35 AM 26.6 °F 15.7 °F 26.6 °F 100% 29.81 in 10.0 mi SE 12.7 mph - N/A   Overcast
10:55 AM 26.6 °F 16.2 °F 26.6 °F 100% 29.80 in 2.0 mi SE 11.5 mph - N/A Snow Light Snow
11:15 AM 26.6 °F 16.8 °F 26.6 °F 100% 29.79 in 1.0 mi SE 10.4 mph - 0.07 in Snow Light Snow
11:35 AM 26.6 °F 16.8 °F 26.6 °F 100% 29.79 in 3.0 mi SE 10.4 mph - 0.08 in Snow Light Snow
11:55 AM 26.6 °F 16.2 °F 26.6 °F 100% 29.80 in 2.0 mi SE 11.5 mph - 0.10 in Snow Light Snow
12:15 PM 28.4 °F 18.5 °F 28.4 °F 100% 29.80 in 3.0 mi SE 11.5 mph - N/A   Scattered Clouds
12:35 PM 28.4 °F 18.5 °F 28.4 °F 100% 29.79 in 3.0 mi SE 11.5 mph - N/A   Partly Cloudy
12:55 PM 28.4 °F 18.0 °F 28.4 °F 100% 29.79 in 9.0 mi SE 12.7 mph - N/A Rain Light Freezing Rain
1:15 PM 28.4 °F 18.0 °F 28.4 °F 100% 29.79 in 9.0 mi SE 12.7 mph - N/A Rain Light Freezing Rain
1:35 PM 28.4 °F 18.5 °F 28.4 °F 100% 29.79 in 10.0 mi SE 11.5 mph - N/A   Mostly Cloudy
1:55 PM 28.4 °F 19.1 °F 28.4 °F 100% 29.79 in 10.0 mi SE 10.4 mph - N/A   Mostly Cloudy
2:15 PM 28.4 °F 18.5 °F 28.4 °F 100% 29.79 in 10.0 mi SE 11.5 mph - N/A   Mostly Cloudy
2:35 PM 28.4 °F 19.1 °F 28.4 °F 100% 29.78 in 10.0 mi ESE 10.4 mph - N/A   Overcast
2:55 PM 28.4 °F 19.1 °F 28.4 °F 100% 29.78 in 10.0 mi SE 10.4 mph - N/A   Overcast
3:15 PM 28.4 °F 19.7 °F 28.4 °F 100% 29.78 in 10.0 mi SE 9.2 mph - N/A   Overcast
3:35 PM 28.4 °F 19.1 °F 28.4 °F 100% 29.78 in 10.0 mi ESE 10.4 mph - N/A   Overcast
3:55 PM 28.4 °F 18.5 °F 28.4 °F 100% 29.77 in 10.0 mi ESE 11.5 mph - N/A   Mostly Cloudy
4:15 PM 28.4 °F 18.5 °F 28.4 °F 100% 29.77 in 5.0 mi ESE 11.5 mph - N/A   Mostly Cloudy
4:35 PM 28.4 °F 19.1 °F 28.4 °F 100% 29.76 in 10.0 mi ESE 10.4 mph - N/A   Mostly Cloudy
4:55 PM 28.4 °F 19.1 °F 28.4 °F 100% 29.77 in 10.0 mi SE 10.4 mph - N/A   Mostly Cloudy
5:15 PM 28.4 °F 19.1 °F 28.4 °F 100% 29.77 in 10.0 mi SE 10.4 mph - N/A   Mostly Cloudy
5:35 PM 28.4 °F 18.5 °F 28.4 °F 100% 29.77 in 10.0 mi ESE 11.5 mph - N/A   Overcast
5:55 PM 28.4 °F 18.5 °F 28.4 °F 100% 29.77 in 10.0 mi ESE 11.5 mph - N/A   Overcast
6:15 PM 28.4 °F 18.0 °F 28.4 °F 100% 29.77 in 10.0 mi ESE 12.7 mph - N/A   Mostly Cloudy
6:35 PM 28.4 °F 18.0 °F 28.4 °F 100% 29.77 in 10.0 mi ESE 12.7 mph - N/A   Overcast
6:55 PM 28.4 °F 17.5 °F 28.4 °F 100% 29.77 in 10.0 mi ESE 13.8 mph - N/A   Overcast
7:15 PM 28.4 °F 17.5 °F 28.4 °F 100% 29.77 in 10.0 mi ESE 13.8 mph - N/A   Overcast
7:35 PM 28.4 °F 18.0 °F 28.4 °F 100% 29.78 in 10.0 mi ESE 12.7 mph - N/A   Overcast
7:55 PM 28.4 °F 17.5 °F 28.4 °F 100% 29.78 in 10.0 mi ESE 13.8 mph - N/A   Overcast
8:15 PM 28.4 °F 17.5 °F 28.4 °F 100% 29.78 in 8.0 mi ESE 13.8 mph - N/A   Overcast
8:35 PM 26.6 °F 14.3 °F 26.6 °F 100% 29.78 in 1.8 mi East 16.1 mph - N/A   Overcast
8:55 PM 26.6 °F 13.8 °F 26.6 °F 100% 29.79 in 2.0 mi East 17.3 mph 21.9 mph N/A   Overcast
9:15 PM 26.6 °F 14.7 °F 26.6 °F 100% 29.80 in 2.5 mi East 15.0 mph - N/A   Overcast
9:35 PM 24.8 °F 11.9 °F 24.8 °F 100% 29.81 in 2.5 mi East 16.1 mph 20.7 mph N/A   Overcast
9:55 PM 24.8 °F 10.7 °F 24.8 °F 100% 29.82 in 1.8 mi East 19.6 mph - N/A Rain Light Freezing Rain
10:15 PM 24.8 °F 11.9 °F 24.8 °F 100% 29.82 in 1.5 mi East 16.1 mph 21.9 mph N/A Rain Light Freezing Rain
10:35 PM 24.8 °F 11.1 °F 24.8 °F 100% 29.82 in 1.2 mi East 18.4 mph - N/A Rain Light Freezing Rain
10:55 PM 24.8 °F 10.7 °F 24.8 °F 100% 29.83 in 1.2 mi ENE 19.6 mph - N/A Rain Light Freezing Rain
11:15 PM 23.0 °F 8.7 °F 23.0 °F 100% 29.83 in 1.0 mi ENE 18.4 mph - N/A Rain Light Freezing Rain
11:35 PM 23.0 °F 8.3 °F 23.0 °F 100% 29.83 in 1.2 mi ENE 19.6 mph 24.2 mph N/A Rain Light Freezing Rain
11:55 PM 23.0 °F 8.7 °F 23.0 °F 100% 29.84 in 1.5 mi ENE 18.4 mph - N/A Rain Light Freezing Rain